Location: Gudip?du
(17.0263°N, 80.8301°E)
Time: 13:09:49
(UTC+00:00)

Cosmos 2082 Rocket - Pass Details

Date: 03 August 2024
Orbit: 833 x 852 km, 71.0° (Epoch: 11 September)

Event Time Altitude Azimuth Distance (km) Brightness Sun altitude
Rises 15:10:06 0° 333° (NNW) 3,375 6.2 -27.4°
Reaches altitude 10° 15:12:37 10° 328° (NNW) 2,442 5.4 -27.9°
Maximum altitude 15:17:56 46° 256° (WSW) 1,111 3.0 -29.0°
Enters shadow 15:19:11 39° 220° (SW) 1,225 3.0 -29.3°
